Location: Olmeneta
(45.2333°N, 10.0167°E)
Time: 02:40:44
(UTC+00:00)

Cosmos 1707 Rocket - Visible Passes

Search period start: 14 June 2021 00:00
Search period end: 24 June 2021 00:00
Orbit: 606 x 631 km, 82.5° (Epoch: 13 June)

Date Brightness Start Highest point End Pass type
(mag) Time Alt. Az. Time Alt. Az. Time Alt. Az.
17 Jun 7.3 02:35:28 10° ENE 02:35:51 10° ENE 02:36:15 10° ENE visible
18 Jun 6.5 02:50:19 10° NNE 02:53:17 17° ENE 02:56:13 10° ESE visible
21 Jun 7.1 02:05:42 10° NE 02:06:23 10° ENE 02:07:03 10° ENE visible
22 Jun 6.4 02:20:47 10° NNE 02:23:48 18° ENE 02:26:46 10° ESE visible
23 Jun 5.6 02:37:13 10° NNE 02:41:06 30° ENE 02:44:56 10° SE visible
